Location: Circle Lane School (historical)
(41.2781°N, 96.3214°W)
Time: 20:22:47
(UTC+00:00)

Daily predictions for brighter satellites

Satellite Brightness Start Highest point End
(mag) Time Altitude Azimuth Time Altitude Azimuth Time Altitude Azimuth
Cosmos 2263 Rocket 2.8 12:04:10 10° S 12:09:43 59° ESE 12:15:19 10° NNE
Cosmos 2058 3.2 12:09:48 38° WNW 12:10:24 41° W 12:14:18 10° SSW
Sich 1 3.3 12:06:23 10° N 12:10:44 68° E 12:15:00 10° SSE
Cosmos 2228 Rocket 4.4 12:07:02 10° SSE 12:11:10 41° E 12:15:20 10° NNE
Cosmos 1603 4.0 12:12:18 24° NW 12:15:16 44° WSW 12:20:35 10° S
ATLAS CENTAUR R/B 4.5 12:14:28 10° NNW 12:17:47 18° NNE 12:23:48 10° ENE
Cosmos 1633 Rocket 3.2 12:14:30 10° N 12:18:53 74° E 12:23:11 10° SSE
Cosmos 1908 3.3 12:21:06 10° S 12:24:54 80° E 12:28:45 10° N
Cosmos 1184 Rocket 2.7 12:22:47 17° NNW 12:25:14 61° W 12:28:30 10° S
CSL-04 Rocket 3.5 12:21:26 10° N 12:26:45 78° WNW 12:32:00 10° SSW
SL-8 R/B 4.1 12:25:16 24° W 12:27:50 48° SW 12:32:26 10° SE
Cosmos 389 Rocket 2.4 12:26:08 10° S 12:29:47 83° W 12:33:29 10° N
Cosmos 1356 Rocket 3.7 12:27:42 10° NNW 12:31:36 43° W 12:35:35 10° SSW
Cosmos 2112 Rocket 4.1 12:31:09 10° NNW 12:36:24 59° WSW 12:41:38 10° S
Nadezhda 4 Rocket 4.0 12:34:08 10° N 12:40:27 76° W 12:46:42 10° S
Helios 1B rocket 3.5 12:36:53 10° SE 12:40:49 46° ENE 12:44:45 10° N
Cosmos 2221 3.5 12:37:54 10° SW 12:41:28 25° WNW 12:45:02 10° NNW
Cosmos 2034 Rocket 4.1 12:36:11 10° SSW 12:42:10 51° WNW 12:48:17 10° N
YAOGAN 1 3.3 12:38:51 10° NNE 12:43:08 58° E 12:47:23 10° S
Cosmos 2298 Rocket 4.2 12:38:23 10° SSW 12:43:40 76° ESE 12:48:58 10° NNE
IRS-1A Rocket 4.3 12:39:36 10° NNE 12:45:31 82° WNW 12:51:18 10° SSW
ATLAS 2AS CENTAUR R/B 3.2 12:38:26 10° NNW 12:46:34 79° NE 12:54:06 10° SE
Cosmos 1666 Rocket 4.1 12:49:31 10° NNW 12:53:37 36° W 12:57:44 10° SSW
APEX 3.0 12:53:15 10° SW 12:56:53 48° WNW 12:59:54 10° NNE
Cosmos 1626 3.3 12:54:09 10° NW 12:57:09 23° W 13:00:08 10° SW
CZ-2C R/B 2.2 12:54:58 10° N 12:59:31 70° WNW 13:04:03 10° SSW
SJ-12 3.9 12:55:30 10° N 12:59:31 58° WNW 13:03:30 10° SSW
USA 234 3.6 12:53:11 10° ESE 12:59:38 64° NE 13:06:05 10° NW
CZ-4 R/B 1.5 12:56:14 10° N 13:00:15 58° WNW 13:04:19 10° SSW
Cosmos 1092 Rocket 4.0 12:55:03 10° NNW 13:01:18 72° W 13:07:27 10° S
Cosmos 1933 Rocket 3.5 13:00:50 10° N 13:05:18 76° W 13:09:41 10° S
COSMOS 2441 4.4 13:06:58 10° NNE 13:11:48 86° ESE 13:16:35 10° SSW
Meteor 2-2 Rocket 4.3 13:07:21 10° SSW 13:13:09 69° W 13:18:53 10° N
EP 1 4.2 13:12:00 10° SW 13:14:35 59° NW 13:17:11 10° NNE
Lacrosse 5 4.0 23:50:59 10° NW 23:53:53 15° NNW 23:56:48 10° NNE
